When you browse on this site, cookies collect data to enhance your experience and personalize the content and advertising you see.
Visit our Privacy Policy to learn more. By continuing to use the site, you agree to this use of cookies and data.
  • In Romania
  • List of Countries
  • For 7 days
  • Water Temperature
  • Satellite Maps
  • Weather Map
  • Weather Widgets
  • user-avatar
    Login

    Hourly Weather Kuzovkovo

    Today, 20 June, Thursday

    Time Temperature Precipitation Wind Pressure Humidity
    00:00 +15°C° 0 mm 1 mps 743 mmHg 73%
    01:00 +15°C° 0 mm 1 mps 743 mmHg 75%
    02:00 +13°C° 0 mm 0 mps 743 mmHg 77%
    03:00 +14°C° 0 mm 0 mps 743 mmHg 76%
    04:00 +16°C° 0 mm 1 mps 743 mmHg 75%
    05:00 +18°C° 0 mm 1 mps 743 mmHg 74%
    06:00 +20°C° 0 mm 1 mps 743 mmHg 67%
    07:00 +22°C° 0 mm 1 mps 743 mmHg 60%
    08:00 +25°C° 0 mm 1 mps 744 mmHg 53%
    09:00 +26°C° 0 mm 1 mps 744 mmHg 48%
    10:00 +27°C° 0 mm 1 mps 744 mmHg 42%
    11:00 +29°C° 0 mm 1 mps 744 mmHg 37%
    12:00 +29°C° 0 mm 1 mps 743 mmHg 35%
    13:00 +29°C° 0 mm 1 mps 743 mmHg 33%
    14:00 +29°C° 0 mm 2 mps 743 mmHg 31%
    15:00 +29°C° 0 mm 2 mps 743 mmHg 37%
    16:00 +28°C° 0 mm 2 mps 742 mmHg 42%
    17:00 +28°C° 0 mm 2 mps 742 mmHg 48%
    18:00 +26°C° 0 mm 2 mps 742 mmHg 56%
    19:00 +24°C° 0 mm 2 mps 742 mmHg 64%
    20:00 +21°C° 0 mm 2 mps 742 mmHg 73%
    21:00 +20°C° 0 mm 2 mps 742 mmHg 74%
    22:00 +19°C° 0 mm 2 mps 742 mmHg 74%
    23:00 +18°C° 0 mm 2 mps 742 mmHg 75%

    Tomorrow, 21 June, Friday

    Time Temperature Precipitation Wind Pressure Humidity
    00:00 +18°C° 0 mm 2 mps 742 mmHg 77%
    01:00 +17°C° 0 mm 2 mps 743 mmHg 80%
    02:00 +17°C° 0 mm 2 mps 743 mmHg 82%
    03:00 +17°C° 0 mm 2 mps 743 mmHg 82%
    04:00 +18°C° 0 mm 2 mps 743 mmHg 81%
    05:00 +19°C° 0 mm 1 mps 742 mmHg 81%
    06:00 +20°C° 0 mm 2 mps 742 mmHg 75%
    07:00 +23°C° 0 mm 2 mps 742 mmHg 69%
    08:00 +25°C° 0 mm 3 mps 742 mmHg 63%
    09:00 +26°C° 0 mm 3 mps 742 mmHg 60%
    10:00 +27°C° 0 mm 3 mps 742 mmHg 57%
    11:00 +28°C° 0 mm 4 mps 742 mmHg 54%
    12:00 +27°C° 0.6 mm 4 mps 742 mmHg 61%
    13:00 +26°C° 0.6 mm 4 mps 741 mmHg 67%
    14:00 +26°C° 0.6 mm 4 mps 741 mmHg 74%
    15:00 +24°C° 0.8 mm 3 mps 741 mmHg 81%
    16:00 +22°C° 0.8 mm 3 mps 741 mmHg 88%
    17:00 +21°C° 0.8 mm 2 mps 740 mmHg 94%
    18:00 +21°C° 0.8 mm 2 mps 740 mmHg 94%
    19:00 +20°C° 0.8 mm 3 mps 740 mmHg 94%
    20:00 +20°C° 0.8 mm 3 mps 740 mmHg 94%
    21:00 +20°C° 0.5 mm 3 mps 740 mmHg 95%
    22:00 +20°C° 0.5 mm 3 mps 740 mmHg 96%
    23:00 +20°C° 0.5 mm 3 mps 740 mmHg 97%

    Day after tomorrow, 22 June, Saturday

    Time Temperature Precipitation Wind Pressure Humidity
    00:00 +20°C° 0 mm 3 mps 740 mmHg 97%
    01:00 +20°C° 0 mm 3 mps 740 mmHg 97%
    02:00 +19°C° 0 mm 3 mps 740 mmHg 97%
    03:00 +20°C° 0.2 mm 3 mps 740 mmHg 97%
    04:00 +20°C° 0.2 mm 3 mps 740 mmHg 97%
    05:00 +20°C° 0.2 mm 3 mps 740 mmHg 97%
    06:00 +21°C° 0.5 mm 3 mps 740 mmHg 94%
    07:00 +22°C° 0.5 mm 3 mps 740 mmHg 92%
    08:00 +24°C° 0.5 mm 3 mps 740 mmHg 89%
    09:00 +26°C° 0.5 mm 3 mps 740 mmHg 80%
    10:00 +27°C° 0.5 mm 3 mps 740 mmHg 70%
    11:00 +28°C° 0.5 mm 3 mps 741 mmHg 61%
    12:00 +28°C° 0.3 mm 3 mps 741 mmHg 61%
    13:00 +28°C° 0.3 mm 3 mps 741 mmHg 61%
    14:00 +28°C° 0.3 mm 3 mps 741 mmHg 61%
    15:00 +27°C° 0.6 mm 3 mps 741 mmHg 69%
    16:00 +26°C° 0.6 mm 2 mps 741 mmHg 76%
    17:00 +25°C° 0.6 mm 2 mps 741 mmHg 83%
    18:00 +24°C° 0.5 mm 2 mps 741 mmHg 86%
    19:00 +21°C° 0.5 mm 2 mps 741 mmHg 90%
    20:00 +20°C° 0.5 mm 2 mps 742 mmHg 93%
    21:00 +19°C° 0 mm 2 mps 742 mmHg 92%
    22:00 +17°C° 0 mm 2 mps 742 mmHg 90%
    23:00 +16°C° 0 mm 2 mps 743 mmHg 89%

    23 June, Sunday

    Time Temperature Precipitation Wind Pressure Humidity
    00:00 +15°C° 0 mm 2 mps 743 mmHg 90%
    01:00 +14°C° 0 mm 2 mps 744 mmHg 91%
    02:00 +13°C° 0 mm 2 mps 744 mmHg 93%
    03:00 +13°C° 0 mm 2 mps 745 mmHg 91%
    04:00 +13°C° 0 mm 2 mps 745 mmHg 89%
    05:00 +13°C° 0 mm 2 mps 746 mmHg 87%
    06:00 +15°C° 0 mm 2 mps 746 mmHg 76%
    07:00 +16°C° 0 mm 2 mps 746 mmHg 66%
    08:00 +18°C° 0 mm 2 mps 747 mmHg 55%
    09:00 +19°C° 0 mm 2 mps 747 mmHg 51%
    10:00 +20°C° 0 mm 2 mps 747 mmHg 47%
    11:00 +21°C° 0 mm 2 mps 747 mmHg 42%
    12:00 +23°C° 0 mm 2 mps 747 mmHg 41%
    13:00 +23°C° 0 mm 2 mps 747 mmHg 39%
    14:00 +24°C° 0 mm 2 mps 747 mmHg 38%
    15:00 +24°C° 0 mm 2 mps 747 mmHg 39%
    16:00 +23°C° 0 mm 2 mps 747 mmHg 41%
    17:00 +23°C° 0 mm 2 mps 747 mmHg 42%
    18:00 +20°C° 0 mm 2 mps 747 mmHg 51%
    19:00 +18°C° 0 mm 2 mps 747 mmHg 60%
    20:00 +16°C° 0 mm 1 mps 748 mmHg 69%
    21:00 +15°C° 0 mm 1 mps 748 mmHg 70%
    22:00 +14°C° 0 mm 1 mps 748 mmHg 71%
    23:00 +13°C° 0 mm 1 mps 748 mmHg 72%

    24 June, Monday

    Time Temperature Precipitation Wind Pressure Humidity
    00:00 +12°C° 0 mm 1 mps 749 mmHg 75%
    01:00 +12°C° 0 mm 1 mps 749 mmHg 77%
    02:00 +11°C° 0 mm 1 mps 749 mmHg 79%
    03:00 +12°C° 0 mm 1 mps 749 mmHg 77%
    04:00 +13°C° 0 mm 1 mps 749 mmHg 74%
    05:00 +14°C° 0 mm 1 mps 750 mmHg 71%
    06:00 +16°C° 0 mm 1 mps 750 mmHg 63%
    07:00 +19°C° 0 mm 1 mps 750 mmHg 56%
    08:00 +19°C° 0 mm 2 mps 750 mmHg 48%
    09:00 +20°C° 0 mm 2 mps 750 mmHg 45%
    10:00 +21°C° 0 mm 2 mps 750 mmHg 42%
    11:00 +23°C° 0 mm 2 mps 750 mmHg 40%
    12:00 +24°C° 0 mm 2 mps 750 mmHg 39%
    13:00 +24°C° 0 mm 2 mps 750 mmHg 38%
    14:00 +24°C° 0 mm 2 mps 750 mmHg 37%
    15:00 +24°C° 0 mm 2 mps 750 mmHg 41%
    16:00 +23°C° 0 mm 2 mps 749 mmHg 44%
    17:00 +23°C° 0 mm 2 mps 749 mmHg 48%
    18:00 +20°C° 0 mm 2 mps 749 mmHg 55%
    19:00 +19°C° 0 mm 1 mps 750 mmHg 63%
    20:00 +16°C° 0 mm 1 mps 750 mmHg 71%
    21:00 +15°C° 0 mm 1 mps 750 mmHg 71%
    22:00 +14°C° 0 mm 2 mps 750 mmHg 71%
    23:00 +13°C° 0 mm 2 mps 750 mmHg 71%

    25 June, Tuesday

    Time Temperature Precipitation Wind Pressure Humidity
    00:00 +13°C° 0 mm 2 mps 750 mmHg 67%
    01:00 +12°C° 0 mm 1 mps 751 mmHg 63%
    02:00 +12°C° 0 mm 1 mps 751 mmHg 58%
    03:00 +12°C° 0 mm 1 mps 751 mmHg 60%
    04:00 +13°C° 0 mm 1 mps 751 mmHg 62%
    05:00 +13°C° 0 mm 1 mps 750 mmHg 64%
    06:00 +15°C° 0 mm 1 mps 750 mmHg 57%
    07:00 +18°C° 0 mm 1 mps 750 mmHg 51%
    08:00 +20°C° 0 mm 1 mps 750 mmHg 44%
    09:00 +20°C° 0 mm 2 mps 750 mmHg 41%
    10:00 +20°C° 0 mm 2 mps 750 mmHg 38%
    11:00 +21°C° 0 mm 2 mps 750 mmHg 34%
    12:00 +23°C° 0 mm 2 mps 749 mmHg 34%
    13:00 +23°C° 0 mm 2 mps 749 mmHg 33%
    14:00 +23°C° 0 mm 2 mps 749 mmHg 32%
    15:00 +23°C° 0 mm 2 mps 748 mmHg 38%
    16:00 +21°C° 0 mm 2 mps 748 mmHg 44%
    17:00 +20°C° 0 mm 2 mps 748 mmHg 50%
    18:00 +18°C° 0 mm 2 mps 748 mmHg 55%
    19:00 +17°C° 0 mm 2 mps 747 mmHg 60%
    20:00 +16°C° 0 mm 2 mps 747 mmHg 65%
    21:00 +15°C° 0.1 mm 1 mps 747 mmHg 70%
    22:00 +14°C° 0.1 mm 1 mps 747 mmHg 74%
    23:00 +12°C° 0.1 mm 0 mps 747 mmHg 79%
    Show more